Location: Bay Ridge
(40.6340°N, 74.0146°W)
Time: 22:30:03
(UTC+00:00)

Cosmos 2058 - Pass Details

Date: 15 November 2019
Orbit: 562 x 585 km, 82.5° (Epoch: 06 December)

Event Time Altitude Azimuth Distance (km) Brightness Sun altitude
Rises 10:15:53 0° 208° (SSW) 2,796 6.3 -16.5°
Reaches altitude 10° 10:18:14 10° 217° (SW) 1,901 5.3 -16.0°
Maximum altitude 10:22:03 34° 283° (WNW) 976 3.5 -15.3°
Drops below altitude 10° 10:25:54 10° 349° (N) 1,910 5.3 -14.6°
Sets 10:28:16 0° 359° (N) 2,812 6.3 -14.2°
